Theta_e
313 316 315 315 314 314 313 314 315 316 317 317 318 320 320 322 323 324 325 326 325 326 327 325 323 322 321 321 321 321 322 326 326 325 324 325 323 322 322 322 322 322 322 322
313 316 317 315 313 314 314 314 314 318 317 316 319 323 322 323 324 325 325 326 326 326 327 326 324 323 321 321 321 320 321 324 325 326 324 324 323 324 322 321 322 323 323 323
311 311 314 313 314 314 315 314 315 317 317 318 324 324 323 323 324 326 326 326 326 327 326 325 323 323 321 320 321 320 319 322 324 326 325 325 325 326 326 325 323 324 325 326
309 314 316 317 318 316 317 320 319 316 319 317 321 326 326 326 326 326 326 327 327 327 326 324 323 323 320 321 321 320 318 321 322 325 326 325 325 324 323 325 325 324 325 326
312 315 316 323 317 316 320 321 314 317 320 321 321 325 327 326 326 328 328 327 328 326 325 323 323 322 320 321 321 321 318 319 321 324 326 326 325 325 324 322 324 324 325 325
312 316 319 317 314 315 318 322 312 312 313 315 319 324 324 328 328 328 328 327 327 326 325 323 323 322 320 322 321 321 318 317 318 324 325 325 323 326 325 323 320 321 324 325
310 311 320 314 313 314 321 315 311 311 311 312 318 320 321 322 329 329 330 328 327 325 324 323 322 322 320 321 321 321 319 316 317 322 326 324 323 322 324 322 318 319 325 325
316 318 323 313 312 314 312 312 311 312 312 312 312 317 321 322 326 329 330 328 327 325 325 325 323 322 320 320 320 322 321 317 316 319 327 324 326 323 323 324 322 316 320 323
315 315 311 312 312 311 311 311 311 311 312 312 313 316 321 323 324 327 330 329 327 326 325 325 325 323 320 319 320 321 322 318 316 317 321 327 327 326 325 325 325 319 315 318
312 311 310 310 312 310 310 309 310 312 313 313 313 314 322 323 323 326 329 330 328 327 326 325 325 325 323 320 320 321 322 320 317 317 320 325 328 328 327 326 326 324 318 316
310 310 309 311 309 310 310 310 309 312 314 314 314 318 322 323 323 326 327 329 328 328 327 327 325 325 325 324 320 320 321 322 318 317 317 319 323 325 327 326 325 324 321 317
311 309 309 309 310 310 310 310 309 310 314 313 313 314 323 325 323 326 326 327 329 329 329 328 327 326 325 325 323 320 320 322 320 318 318 317 319 322 325 324 324 323 323 319
309 309 309 309 309 309 309 309 308 309 314 314 314 314 323 327 325 324 327 327 328 330 330 330 329 327 326 326 325 322 320 321 322 318 319 318 317 319 321 323 323 323 324 322
309 309 309 309 309 309 308 308 308 308 313 315 315 320 323 328 326 325 326 329 329 329 330 330 330 329 328 326 326 325 322 320 321 320 319 319 319 317 317 319 321 321 321 322
308 309 308 307 308 308 307 309 308 308 312 315 315 317 321 329 328 327 327 327 328 328 328 330 330 329 328 327 327 326 324 322 320 322 319 319 319 319 317 317 318 319 319 320
306 307 309 310 309 309 309 309 308 308 311 315 314 316 319 324 328 327 328 328 328 328 329 330 330 329 329 328 327 327 326 324 322 320 322 319 319 319 319 318 318 318 318 318
305 306 306 306 308 309 310 310 309 309 310 313 314 314 317 320 326 329 328 329 329 329 329 330 330 329 329 329 329 328 327 326 324 322 321 321 319 319 320 320 319 318 319 319
306 306 306 306 305 306 308 310 309 309 310 314 314 314 315 317 320 325 329 329 328 328 328 328 329 328 328 328 328 329 328 327 326 324 323 322 322 320 320 321 321 320 319 319
308 307 307 307 306 306 306 309 310 309 309 310 311 313 314 315 317 321 327 329 330 329 329 329 329 329 329 329 328 327 328 328 328 327 326 324 323 323 323 322 322 322 321 320
309 308 308 308 307 307 306 307 309 311 309 309 310 312 313 315 316 318 324 328 330 331 331 331 331 331 331 330 329 329 328 328 329 328 328 327 326 324 324 324 324 324 324 323
309 309 309 309 309 309 308 307 308 309 311 311 311 312 313 316 315 317 321 327 329 329 330 330 330 331 328 330 330 330 330 328 329 330 329 329 329 329 327 327 326 325 325 326
309 308 308 309 309 310 309 309 308 308 310 311 311 312 313 316 314 317 321 326 328 329 329 328 329 326 326 328 328 330 330 330 328 331 331 331 331 330 330 330 329 329 329 329
309 308 308 308 308 309 309 309 309 309 309 311 312 312 314 315 314 316 318 323 327 328 328 326 327 327 327 327 327 329 327 330 331 330 331 331 331 331 331 331 331 330 330 330
308 309 308 308 307 308 309 310 310 310 309 310 311 314 315 314 313 314 316 320 324 327 329 325 326 326 326 327 326 328 324 330 331 332 333 333 332 332 332 331 331 330 330 329
307 307 307 307 308 307 307 308 309 310 310 309 310 311 314 313 313 312 313 315 318 324 329 333 328 325 328 329 328 327 327 329 330 331 331 332 332 331 331 331 330 330 329 329
307 307 307 307 307 307 306 306 307 308 310 311 309 310 310 311 311 311 310 313 315 320 327 326 329 326 324 321 323 325 327 326 326 326 328 329 329 329 328 328 328 327 327 327
306 307 305 306 307 306 305 305 306 306 307 310 313 311 309 309 310 309 309 311 315 320 326 326 325 323 323 325 325 326 326 327 325 326 328 328 328 327 327 326 325 325 324 324
Wind_Speed
10 12 3 6 12 19 17 23 12 4 8 6 8 8 6 18 21 24 25 29 34 35 30 26 23 21 17 16 15 13 11 10 7 8 5 7 13 13 14 14 12 12 13 13
4 8 14 10 7 16 22 20 16 4 10 9 1 8 9 22 25 26 29 32 34 34 30 29 24 23 19 18 17 14 13 11 9 9 7 10 14 14 13 12 12 11 10 10
4 7 4 7 15 8 9 13 18 12 24 4 4 7 11 23 28 30 32 34 36 35 32 28 26 24 21 20 19 17 14 13 13 13 11 11 14 14 12 10 11 11 9 8
3 5 5 1 16 2 11 9 11 6 7 7 10 29 26 29 34 33 32 35 35 34 32 27 25 25 21 20 20 19 16 15 16 16 12 11 12 12 12 10 11 10 8 9
2 2 3 6 11 9 6 4 12 11 13 10 23 5 6 28 34 35 35 34 34 32 31 27 26 26 24 22 22 20 19 17 17 17 13 14 10 10 9 8 10 9 7 8
1 2 3 9 15 10 4 3 14 13 13 14 17 4 6 29 32 32 32 30 32 31 32 28 27 28 28 26 24 22 22 20 17 19 16 14 11 10 8 6 8 8 8 8
2 2 1 13 17 3 5 5 20 18 17 16 6 9 27 17 34 33 34 30 31 33 34 30 29 31 31 29 27 23 22 20 19 21 18 15 13 11 10 6 7 8 10 11
2 1 2 21 7 7 5 12 16 20 19 23 25 30 27 21 27 33 35 31 32 34 35 33 31 32 33 33 26 24 23 22 20 22 20 19 14 15 11 7 7 10 10 12
4 2 9 15 5 5 11 17 19 22 28 27 27 28 21 22 19 35 35 36 32 36 36 36 36 33 32 30 28 27 24 24 23 21 22 21 18 16 14 12 8 11 13 13
4 5 12 23 7 13 19 24 27 29 29 28 28 26 19 18 19 29 37 40 36 36 37 37 38 36 29 27 28 29 26 26 24 23 24 23 21 18 17 15 12 10 13 16
2 6 16 8 15 24 29 27 30 29 30 33 29 28 19 13 19 27 37 44 40 35 34 35 38 37 34 30 30 30 29 28 27 25 23 24 23 22 21 17 14 11 11 14
1 2 7 17 22 31 28 28 31 30 32 36 32 30 20 10 18 26 34 42 42 37 34 33 32 36 36 32 32 30 31 31 30 28 28 26 25 25 23 20 17 14 11 8
3 6 13 32 27 21 24 32 29 28 25 30 35 29 22 9 10 22 29 36 44 41 37 34 30 32 36 34 34 33 33 33 33 31 30 31 29 27 28 24 22 20 17 13
8 11 11 19 19 30 32 29 26 26 22 25 31 31 25 9 5 20 29 34 39 43 38 35 33 31 32 33 35 35 34 32 33 34 33 31 32 30 27 27 27 24 21 20
11 12 17 25 30 26 30 25 27 27 23 23 26 31 27 15 1 13 22 28 31 39 40 37 34 33 32 34 36 38 37 36 34 35 34 32 29 30 29 26 26 26 24 23
21 21 19 18 23 26 27 26 27 28 23 20 21 26 29 21 9 3 15 20 28 31 39 39 37 36 36 36 37 38 38 37 37 35 36 34 34 31 31 30 26 24 23 22
16 16 21 23 23 26 27 27 26 26 24 20 19 20 23 23 12 5 12 20 20 20 29 39 40 38 38 37 37 37 39 39 39 39 37 37 36 36 34 34 33 29 25 20
16 20 22 21 25 27 26 27 26 23 22 19 18 19 19 20 20 13 1 12 18 22 26 31 35 36 34 36 38 37 37 37 38 41 42 40 39 36 34 32 33 34 30 27
16 20 24 23 25 26 27 27 27 26 24 23 24 18 17 16 17 16 7 5 16 19 21 22 28 27 30 30 33 38 39 36 37 38 39 42 42 41 38 33 31 30 30 32
21 20 23 27 26 26 28 28 27 27 25 23 23 22 18 13 15 16 11 6 11 17 21 17 13 4 13 24 26 32 34 40 36 37 37 38 37 39 39 38 35 31 31 33
26 25 21 24 28 27 25 26 26 29 26 23 20 23 18 12 11 17 14 9 6 11 18 22 20 19 11 16 17 27 31 38 37 35 36 33 32 30 31 32 33 31 28 27
21 27 27 26 29 27 25 23 24 27 28 26 21 20 19 14 9 12 10 7 11 14 16 20 27 29 37 43 28 23 32 38 42 30 28 30 25 22 23 24 28 27 27 30
23 27 31 29 26 24 19 19 22 22 31 28 21 20 20 18 16 12 17 11 12 16 17 19 24 31 36 29 30 31 34 34 36 36 29 28 26 24 22 22 21 24 22 24
25 23 28 32 31 28 24 21 19 20 27 32 26 21 23 27 27 18 14 13 12 4 13 21 25 26 25 30 32 24 32 33 36 33 30 29 28 26 25 25 25 23 21 21
25 26 28 30 27 31 32 29 23 22 22 28 32 27 25 25 26 18 20 18 15 5 5 14 23 20 27 22 22 26 26 32 41 25 25 27 27 26 26 26 25 23 21 21
24 27 25 26 24 26 34 28 30 25 23 26 32 34 32 30 28 23 22 20 19 12 12 16 22 27 9 24 39 44 38 28 22 21 21 21 20 20 18 17 18 18 18 17
23 25 27 23 24 29 33 28 30 29 24 22 27 30 36 34 32 28 27 25 20 14 15 15 21 25 17 20 18 25 29 26 19 22 22 21 21 20 19 18 16 15 14 14
Wind_Direction
300 290 269 162 179 199 202 215 212 221 242 251 250 239 223 168 163 167 175 180 179 180 180 183 183 186 187 184 180 181 179 178 159 138 91 90 117 120 122 124 126 128 125 130
290 262 275 265 253 211 199 209 231 250 254 228 252 137 166 164 170 177 185 187 184 183 184 187 186 189 190 187 186 189 183 180 163 148 108 109 119 115 120 123 125 128 126 122
304 339 256 261 235 208 207 224 204 195 236 140 193 213 181 174 187 189 192 190 188 189 187 187 187 190 190 188 188 195 189 181 169 159 127 119 122 112 114 130 138 133 130 130
269 305 163 272 27 269 194 45 1 307 345 239 200 211 189 194 200 197 200 195 193 191 190 189 185 189 187 190 191 197 191 184 177 169 160 135 131 117 101 120 140 142 131 127
178 273 262 19 20 349 10 56 9 350 344 341 336 301 194 202 211 203 207 198 195 192 188 184 185 186 188 190 193 198 195 188 185 182 181 177 165 144 113 97 135 141 139 125
46 210 161 351 321 299 161 157 354 348 337 334 334 162 236 205 215 207 211 199 193 191 188 186 185 187 190 192 196 199 198 190 186 186 183 180 173 174 155 102 132 136 140 134
228 245 18 346 328 115 141 292 319 326 324 323 309 266 291 329 214 212 208 204 191 193 189 187 185 189 193 195 199 193 196 191 191 191 188 185 182 180 171 151 141 137 136 139
182 242 127 355 7 61 275 300 314 327 326 317 313 308 293 280 238 207 202 201 191 193 194 190 188 192 195 200 191 193 197 197 197 196 193 193 190 183 180 181 157 162 151 144
12 12 326 336 335 357 339 309 328 329 333 335 328 322 301 270 252 221 200 204 194 194 197 195 194 195 198 200 193 195 198 199 200 199 202 200 199 198 193 192 187 179 179 169
332 333 316 307 302 350 342 338 340 349 342 348 332 335 314 273 248 225 206 204 198 195 201 201 199 201 205 197 192 197 200 201 197 205 206 206 208 210 207 205 202 200 194 193
252 307 326 72 330 333 330 341 341 349 357 355 350 349 334 282 239 233 218 204 201 197 201 208 202 202 205 204 197 196 201 204 203 205 208 207 211 212 215 219 222 218 220 209
133 206 278 287 319 323 328 330 342 341 347 3 359 348 342 301 228 229 216 211 203 202 205 211 206 203 206 207 203 201 201 205 206 206 210 210 211 217 220 221 221 229 241 245
239 304 282 297 305 325 326 324 335 335 339 350 2 353 347 327 223 218 215 213 210 204 207 210 210 204 206 207 207 208 207 205 206 207 210 216 216 218 223 226 227 232 235 233
341 305 313 301 311 315 317 324 326 329 334 353 3 3 2 4 209 206 213 219 215 212 209 211 210 207 204 204 208 211 212 211 208 209 209 216 220 221 224 229 231 231 228 229
322 315 286 292 305 311 315 324 327 331 337 342 2 4 5 22 96 192 207 220 218 219 217 210 210 208 205 203 207 213 213 214 212 213 213 214 220 225 226 227 229 231 233 232
310 310 307 304 303 300 303 315 323 327 326 330 344 357 4 8 18 184 204 212 214 216 219 215 213 209 206 205 209 212 216 219 216 215 216 217 219 222 227 228 228 229 232 235
301 304 318 317 312 314 306 306 310 315 316 314 318 336 355 357 15 116 171 195 214 220 222 215 215 218 215 211 212 214 217 221 221 221 221 220 224 227 230 233 233 231 230 232
304 307 315 314 302 293 300 299 299 301 308 301 310 320 333 349 356 3 95 174 185 209 217 220 222 224 225 220 216 216 218 222 224 225 226 226 227 229 231 235 237 238 239 239
308 304 310 306 306 303 293 288 288 287 289 292 299 305 316 324 335 334 324 202 184 190 193 208 222 222 224 228 226 225 222 221 224 227 231 231 232 233 234 237 238 240 243 243
330 326 316 312 307 301 302 287 280 280 281 284 289 286 297 302 318 321 313 267 216 203 189 171 175 162 242 227 225 228 229 229 223 227 231 235 235 237 237 238 239 242 245 243
356 343 326 323 316 309 301 292 281 274 276 279 274 271 285 272 301 313 308 272 233 218 216 210 227 213 252 275 240 233 225 231 227 224 228 232 237 239 238 238 238 239 241 244
0 358 350 339 334 322 306 291 279 272 267 269 259 261 271 249 277 279 304 284 237 227 208 193 200 202 221 253 256 240 236 230 232 215 217 224 224 223 228 228 235 234 242 250
1 4 360 349 344 343 328 305 279 266 262 260 260 251 248 252 268 276 269 274 248 241 218 192 204 214 233 232 242 250 245 246 235 230 211 213 217 224 230 229 237 250 249 253
355 358 359 2 3 355 357 346 321 284 259 259 255 240 242 254 261 271 256 256 244 314 238 221 228 238 237 232 238 246 248 237 233 220 215 219 223 226 230 232 235 235 236 238
4 357 351 356 353 356 351 358 340 313 281 255 259 241 233 241 256 274 276 260 262 231 256 228 221 231 228 219 215 257 274 232 231 208 214 218 220 223 225 228 232 235 235 238
1 0 358 1 359 358 355 355 349 336 317 279 252 250 244 240 249 251 269 259 257 243 203 222 221 200 241 209 210 261 258 231 203 201 207 207 209 210 213 219 224 227 228 229
1 4 7 9 11 8 7 357 353 353 335 301 270 252 248 245 244 251 254 259 258 252 218 191 183 169 183 182 220 250 222 206 195 195 195 198 198 199 200 200 204 213 220 227